Location: Goettingen
(51.5300°N, 9.9433°E)
Time: 23:12:37
(UTC+01:00)

ISS - Pass Details

Date: 22 March 2017
Orbit: 399 x 409 km, 51.6° (Epoch: 23 March)

Event Time Altitude Azimuth Distance (km) Brightness Sun altitude
Exits shadow 03:46:56 13° 130° (SE) 1,281 -1.1 -23.0°
Drops below altitude 10° 03:47:25 10° 128° (SE) 1,471 -0.8 -23.0°
Sets 03:49:33 0° 122° (ESE) 2,331 0.3 -22.7°
